QPF
0.01 0.01 0.01 0.03 0.03 0.03 0.02 0.03 0.02 0.02 0.02 0.02 0.02 0.01 0.01 0.01 0.01 0.01 0.01 0.01 0.01 0.02 0.02 0.02 0.01 0.02 0.02 0.01 0.02 0.03 0.03 0.02 0.02 0.03 0.03 0.02 0.01 0.01 0.01 0.01 0.01 0.03 0.04
0.01 0.01 0.01 0.02 0.04 0.03 0.03 0.03 0.03 0.03 0.03 0.03 0.03 0.02 0.01 0.01 0.01 0.01 0.02 0.02 0.02 0.02 0.02 0.03 0.02 0.02 0.02 0.02 0.02 0.03 0.03 0.03 0.02 0.02 0.02 0.02 0.01 0.01 0.01 0.01 0.02 0.05 0.04
0.01 0.01 0.00 0.01 0.03 0.04 0.04 0.04 0.04 0.04 0.04 0.02 0.02 0.02 0.02 0.02 0.02 0.01 0.01 0.03 0.03 0.03 0.03 0.04 0.04 0.02 0.02 0.02 0.03 0.03 0.03 0.02 0.02 0.02 0.02 0.03 0.03 0.03 0.02 0.02 0.01 0.02 0.02
0.01 0.01 0.01 0.01 0.03 0.06 0.07 0.07 0.05 0.03 0.02 0.02 0.01 0.02 0.02 0.02 0.02 0.02 0.02 0.03 0.04 0.11 0.09 0.05 0.04 0.03 0.03 0.03 0.03 0.03 0.03 0.02 0.02 0.02 0.02 0.05 0.06 0.06 0.04 0.02 0.01 0.01 0.01
0.01 0.02 0.01 0.01 0.03 0.04 0.09 0.06 0.03 0.02 0.02 0.01 0.01 0.03 0.04 0.03 0.02 0.02 0.02 0.03 0.04 0.10 0.25 0.15 0.08 0.05 0.04 0.04 0.04 0.04 0.03 0.02 0.03 0.03 0.02 0.02 0.04 0.06 0.04 0.02 0.01 0.01 0.02
0.02 0.01 0.01 0.01 0.02 0.03 0.05 0.03 0.03 0.02 0.02 0.01 0.01 0.02 0.03 0.03 0.03 0.02 0.02 0.03 0.04 0.05 0.12 0.20 0.12 0.09 0.06 0.05 0.05 0.05 0.04 0.03 0.02 0.02 0.02 0.02 0.02 0.04 0.04 0.03 0.02 0.02 0.03
0.04 0.03 0.02 0.01 0.02 0.04 0.04 0.03 0.02 0.02 0.02 0.01 0.01 0.01 0.02 0.03 0.03 0.05 0.05 0.04 0.04 0.06 0.06 0.07 0.07 0.07 0.06 0.05 0.05 0.05 0.05 0.04 0.02 0.02 0.03 0.02 0.02 0.03 0.05 0.05 0.03 0.03 0.03
0.04 0.05 0.05 0.06 0.05 0.04 0.03 0.03 0.03 0.02 0.01 0.01 0.01 0.01 0.02 0.02 0.04 0.06 0.08 0.07 0.07 0.08 0.09 0.07 0.07 0.07 0.07 0.05 0.05 0.06 0.06 0.04 0.03 0.02 0.02 0.03 0.04 0.05 0.06 0.05 0.05 0.04 0.04
0.02 0.06 0.05 0.04 0.04 0.03 0.03 0.03 0.03 0.03 0.03 0.03 0.02 0.02 0.03 0.03 0.04 0.06 0.08 0.08 0.08 0.07 0.08 0.08 0.09 0.11 0.11 0.07 0.06 0.06 0.06 0.05 0.02 0.02 0.03 0.04 0.06 0.05 0.05 0.04 0.04 0.05 0.04
0.01 0.04 0.05 0.03 0.03 0.03 0.04 0.03 0.03 0.04 0.04 0.05 0.02 0.02 0.02 0.03 0.04 0.05 0.07 0.08 0.08 0.08 0.07 0.08 0.08 0.10 0.13 0.12 0.08 0.05 0.07 0.06 0.03 0.03 0.06 0.07 0.06 0.06 0.05 0.04 0.04 0.05 0.05
0.02 0.05 0.06 0.04 0.04 0.05 0.07 0.07 0.05 0.06 0.04 0.04 0.04 0.02 0.03 0.04 0.05 0.06 0.06 0.08 0.08 0.08 0.07 0.06 0.06 0.07 0.09 0.14 0.14 0.10 0.07 0.08 0.07 0.04 0.06 0.10 0.09 0.06 0.05 0.04 0.04 0.04 0.05
0.02 0.03 0.04 0.04 0.04 0.05 0.05 0.07 0.07 0.07 0.06 0.04 0.05 0.06 0.06 0.05 0.05 0.06 0.08 0.08 0.08 0.08 0.08 0.07 0.06 0.06 0.07 0.09 0.12 0.12 0.09 0.08 0.08 0.04 0.05 0.06 0.08 0.09 0.06 0.04 0.04 0.05 0.05
0.04 0.07 0.05 0.03 0.04 0.05 0.06 0.06 0.07 0.06 0.07 0.06 0.07 0.09 0.08 0.07 0.06 0.06 0.08 0.09 0.08 0.08 0.09 0.09 0.09 0.09 0.08 0.08 0.10 0.11 0.10 0.08 0.05 0.04 0.05 0.05 0.06 0.09 0.08 0.05 0.04 0.04 0.05
0.04 0.06 0.05 0.04 0.04 0.04 0.05 0.05 0.05 0.05 0.05 0.06 0.07 0.09 0.09 0.07 0.06 0.06 0.06 0.06 0.06 0.07 0.08 0.07 0.08 0.09 0.09 0.09 0.08 0.09 0.10 0.11 0.08 0.06 0.05 0.05 0.06 0.07 0.08 0.07 0.06 0.05 0.05
0.04 0.03 0.03 0.03 0.05 0.04 0.05 0.05 0.04 0.05 0.06 0.06 0.07 0.06 0.06 0.05 0.05 0.05 0.04 0.04 0.04 0.04 0.06 0.06 0.06 0.06 0.08 0.09 0.09 0.08 0.07 0.07 0.07 0.07 0.05 0.04 0.04 0.05 0.06 0.07 0.06 0.06 0.06
0.05 0.05 0.03 0.03 0.06 0.05 0.05 0.05 0.04 0.04 0.06 0.07 0.06 0.04 0.06 0.06 0.07 0.06 0.04 0.06 0.05 0.05 0.04 0.04 0.05 0.05 0.04 0.05 0.06 0.05 0.04 0.04 0.04 0.05 0.05 0.04 0.03 0.03 0.04 0.05 0.06 0.07 0.07
0.05 0.06 0.04 0.03 0.04 0.06 0.06 0.05 0.06 0.05 0.05 0.06 0.06 0.05 0.05 0.07 0.09 0.08 0.07 0.07 0.05 0.04 0.04 0.04 0.04 0.05 0.04 0.04 0.04 0.04 0.03 0.03 0.03 0.03 0.03 0.02 0.01 0.01 0.02 0.03 0.03 0.05 0.06
0.04 0.05 0.04 0.02 0.03 0.05 0.07 0.06 0.05 0.05 0.05 0.06 0.05 0.06 0.05 0.06 0.07 0.09 0.08 0.08 0.06 0.04 0.04 0.04 0.04 0.03 0.04 0.03 0.04 0.03 0.03 0.02 0.03 0.03 0.03 0.02 0.02 0.01 0.01 0.02 0.02 0.03 0.05
0.06 0.08 0.07 0.05 0.06 0.06 0.07 0.07 0.05 0.04 0.05 0.05 0.03 0.05 0.05 0.04 0.05 0.08 0.08 0.08 0.06 0.05 0.05 0.04 0.04 0.03 0.04 0.04 0.03 0.04 0.03 0.03 0.03 0.03 0.03 0.03 0.03 0.03 0.02 0.02 0.03 0.03 0.04
0.07 0.09 0.08 0.07 0.07 0.07 0.07 0.07 0.07 0.07 0.10 0.09 0.05 0.03 0.03 0.04 0.05 0.07 0.06 0.06 0.05 0.05 0.05 0.05 0.05 0.04 0.04 0.04 0.02 0.03 0.04 0.04 0.04 0.03 0.03 0.03 0.03 0.03 0.02 0.03 0.04 0.04 0.03
0.06 0.08 0.09 0.09 0.08 0.07 0.09 0.10 0.08 0.07 0.08 0.06 0.04 0.03 0.04 0.05 0.06 0.05 0.05 0.06 0.04 0.04 0.05 0.05 0.05 0.05 0.04 0.04 0.04 0.04 0.04 0.04 0.03 0.04 0.04 0.03 0.02 0.02 0.02 0.04 0.05 0.05 0.04
0.04 0.04 0.05 0.07 0.07 0.07 0.10 0.12 0.11 0.10 0.08 0.05 0.04 0.05 0.04 0.05 0.05 0.05 0.06 0.05 0.04 0.04 0.05 0.05 0.05 0.05 0.03 0.04 0.04 0.05 0.05 0.05 0.03 0.03 0.03 0.03 0.03 0.03 0.02 0.02 0.03 0.05 0.04
0.03 0.03 0.03 0.05 0.06 0.08 0.11 0.11 0.11 0.15 0.13 0.08 0.06 0.05 0.04 0.04 0.05 0.06 0.07 0.06 0.05 0.05 0.05 0.05 0.04 0.04 0.04 0.03 0.04 0.06 0.06 0.06 0.05 0.04 0.04 0.04 0.04 0.04 0.03 0.02 0.04 0.05 0.04
0.03 0.04 0.04 0.04 0.05 0.06 0.07 0.09 0.09 0.12 0.13 0.10 0.09 0.08 0.05 0.03 0.03 0.04 0.05 0.05 0.05 0.05 0.04 0.04 0.03 0.04 0.05 0.04 0.04 0.05 0.05 0.06 0.07 0.05 0.04 0.04 0.04 0.04 0.04 0.03 0.03 0.04 0.05
0.02 0.04 0.03 0.04 0.03 0.04 0.04 0.07 0.09 0.13 0.13 0.09 0.08 0.08 0.05 0.04 0.03 0.03 0.03 0.03 0.03 0.04 0.04 0.04 0.05 0.06 0.06 0.05 0.05 0.04 0.04 0.06 0.07 0.07 0.06 0.05 0.05 0.04 0.03 0.03 0.04 0.04 0.05
0.02 0.03 0.04 0.04 0.04 0.04 0.05 0.06 0.08 0.10 0.11 0.09 0.08 0.06 0.05 0.05 0.04 0.03 0.03 0.04 0.05 0.05 0.05 0.05 0.05 0.06 0.06 0.06 0.06 0.06 0.06 0.06 0.06 0.06 0.06 0.07 0.06 0.05 0.04 0.04 0.04 0.04 0.05
MSLP
1006.02 1006.04 1006.31 1006.79 1007.35 1007.91 1008.37 1008.68 1008.87 1008.97 1009.05 1009.19 1009.43 1009.77 1010.19 1010.64 1011.05 1011.39 1011.63 1011.80 1011.92 1012.05 1012.21 1012.44 1012.71 1013.02 1013.31 1013.57 1013.78 1013.92 1014.02 1014.10 1014.18 1014.30 1014.45 1014.62 1014.82 1015.01 1015.20 1015.36 1015.51 1015.66 1015.82
1006.29 1006.39 1006.71 1007.19 1007.73 1008.23 1008.62 1008.86 1008.99 1009.05 1009.12 1009.28 1009.57 1009.97 1010.45 1010.94 1011.39 1011.73 1011.96 1012.09 1012.17 1012.25 1012.37 1012.54 1012.79 1013.07 1013.35 1013.59 1013.78 1013.90 1013.97 1014.02 1014.08 1014.17 1014.29 1014.46 1014.66 1014.87 1015.07 1015.26 1015.43 1015.61 1015.78
1006.33 1006.52 1006.91 1007.43 1007.97 1008.46 1008.81 1009.02 1009.12 1009.16 1009.23 1009.40 1009.70 1010.12 1010.61 1011.12 1011.55 1011.89 1012.09 1012.20 1012.25 1012.31 1012.41 1012.58 1012.82 1013.11 1013.39 1013.63 1013.80 1013.90 1013.94 1013.96 1013.97 1014.02 1014.12 1014.27 1014.46 1014.67 1014.90 1015.11 1015.32 1015.53 1015.73
1006.13 1006.41 1006.89 1007.47 1008.06 1008.57 1008.94 1009.15 1009.25 1009.29 1009.36 1009.53 1009.82 1010.23 1010.70 1011.17 1011.57 1011.88 1012.06 1012.15 1012.20 1012.27 1012.39 1012.59 1012.85 1013.15 1013.44 1013.69 1013.85 1013.93 1013.94 1013.91 1013.88 1013.89 1013.95 1014.07 1014.25 1014.46 1014.70 1014.94 1015.18 1015.42 1015.65
1005.75 1006.13 1006.69 1007.36 1008.02 1008.58 1009.00 1009.24 1009.36 1009.41 1009.49 1009.65 1009.92 1010.29 1010.71 1011.13 1011.50 1011.76 1011.92 1012.02 1012.09 1012.18 1012.34 1012.57 1012.87 1013.20 1013.51 1013.75 1013.90 1013.96 1013.94 1013.87 1013.80 1013.76 1013.78 1013.87 1014.03 1014.24 1014.48 1014.74 1015.01 1015.28 1015.54
1005.33 1005.78 1006.43 1007.18 1007.91 1008.54 1009.00 1009.29 1009.44 1009.52 1009.61 1009.75 1010.00 1010.32 1010.69 1011.06 1011.37 1011.61 1011.76 1011.86 1011.95 1012.08 1012.28 1012.56 1012.89 1013.24 1013.55 1013.79 1013.93 1013.96 1013.91 1013.81 1013.70 1013.63 1013.61 1013.67 1013.81 1014.00 1014.24 1014.51 1014.79 1015.08 1015.36
1005.01 1005.52 1006.22 1007.02 1007.80 1008.47 1008.97 1009.30 1009.48 1009.58 1009.68 1009.82 1010.04 1010.33 1010.65 1010.97 1011.25 1011.45 1011.60 1011.71 1011.82 1011.98 1012.21 1012.52 1012.86 1013.22 1013.53 1013.76 1013.88 1013.89 1013.82 1013.70 1013.57 1013.48 1013.44 1013.47 1013.58 1013.75 1013.97 1014.23 1014.51 1014.80 1015.08
1004.93 1005.45 1006.16 1006.97 1007.75 1008.42 1008.93 1009.26 1009.46 1009.58 1009.69 1009.84 1010.05 1010.31 1010.61 1010.90 1011.14 1011.33 1011.47 1011.58 1011.71 1011.89 1012.13 1012.43 1012.77 1013.10 1013.39 1013.60 1013.71 1013.72 1013.64 1013.52 1013.39 1013.29 1013.25 1013.27 1013.35 1013.49 1013.69 1013.91 1014.17 1014.43 1014.70
1005.17 1005.66 1006.33 1007.07 1007.79 1008.41 1008.87 1009.18 1009.37 1009.50 1009.62 1009.78 1010.00 1010.26 1010.55 1010.82 1011.05 1011.23 1011.36 1011.47 1011.60 1011.76 1011.99 1012.26 1012.57 1012.87 1013.13 1013.32 1013.42 1013.43 1013.37 1013.28 1013.17 1013.09 1013.05 1013.06 1013.12 1013.23 1013.39 1013.57 1013.78 1014.01 1014.25
1005.73 1006.15 1006.71 1007.33 1007.92 1008.42 1008.78 1009.03 1009.19 1009.31 1009.44 1009.63 1009.87 1010.15 1010.45 1010.72 1010.95 1011.12 1011.24 1011.34 1011.45 1011.59 1011.79 1012.02 1012.29 1012.55 1012.77 1012.94 1013.04 1013.07 1013.04 1012.99 1012.93 1012.88 1012.86 1012.87 1012.92 1013.00 1013.10 1013.23 1013.38 1013.56 1013.75
1006.53 1006.84 1007.25 1007.70 1008.10 1008.42 1008.65 1008.80 1008.90 1009.01 1009.15 1009.37 1009.64 1009.95 1010.27 1010.56 1010.79 1010.96 1011.08 1011.17 1011.25 1011.37 1011.53 1011.73 1011.95 1012.17 1012.37 1012.53 1012.63 1012.69 1012.70 1012.70 1012.69 1012.68 1012.69 1012.71 1012.74 1012.79 1012.84 1012.91 1013.00 1013.12 1013.26
1007.48 1007.65 1007.88 1008.10 1008.28 1008.40 1008.46 1008.49 1008.52 1008.60 1008.75 1008.99 1009.30 1009.65 1009.99 1010.29 1010.54 1010.72 1010.83 1010.92 1011.00 1011.11 1011.24 1011.41 1011.60 1011.80 1011.99 1012.14 1012.26 1012.35 1012.41 1012.45 1012.48 1012.51 1012.54 1012.57 1012.58 1012.60 1012.61 1012.62 1012.65 1012.71 1012.81
1008.44 1008.46 1008.49 1008.48 1008.42 1008.32 1008.20 1008.10 1008.06 1008.11 1008.26 1008.52 1008.86 1009.23 1009.60 1009.92 1010.18 1010.37 1010.51 1010.61 1010.70 1010.81 1010.95 1011.12 1011.31 1011.50 1011.68 1011.84 1011.97 1012.08 1012.17 1012.24 1012.30 1012.36 1012.39 1012.41 1012.41 1012.39 1012.36 1012.33 1012.31 1012.32 1012.37
1009.31 1009.19 1009.01 1008.78 1008.49 1008.19 1007.90 1007.68 1007.56 1007.58 1007.73 1007.99 1008.34 1008.73 1009.11 1009.44 1009.72 1009.93 1010.09 1010.23 1010.37 1010.52 1010.69 1010.88 1011.09 1011.29 1011.47 1011.64 1011.77 1011.89 1011.98 1012.06 1012.13 1012.17 1012.20 1012.20 1012.17 1012.12 1012.05 1011.98 1011.93 1011.91 1011.93
1010.02 1009.76 1009.41 1008.97 1008.50 1008.02 1007.60 1007.28 1007.10 1007.07 1007.20 1007.46 1007.80 1008.18 1008.55 1008.89 1009.18 1009.42 1009.63 1009.82 1010.02 1010.24 1010.47 1010.71 1010.94 1011.16 1011.36 1011.52 1011.64 1011.74 1011.81 1011.86 1011.89 1011.91 1011.90 1011.86 1011.80 1011.72 1011.62 1011.53 1011.47 1011.43 1011.44
1010.54 1010.16 1009.67 1009.09 1008.46 1007.87 1007.35 1006.96 1006.73 1006.67 1006.77 1006.99 1007.30 1007.64 1007.98 1008.31 1008.61 1008.88 1009.14 1009.40 1009.68 1009.97 1010.28 1010.57 1010.85 1011.09 1011.28 1011.42 1011.52 1011.57 1011.59 1011.58 1011.55 1011.51 1011.44 1011.36 1011.25 1011.14 1011.03 1010.93 1010.86 1010.83 1010.84
1010.88 1010.41 1009.82 1009.14 1008.44 1007.77 1007.20 1006.78 1006.52 1006.42 1006.48 1006.65 1006.90 1007.18 1007.47 1007.77 1008.06 1008.35 1008.66 1009.00 1009.35 1009.73 1010.10 1010.45 1010.76 1011.00 1011.18 1011.29 1011.33 1011.32 1011.27 1011.18 1011.08 1010.96 1010.83 1010.69 1010.54 1010.39 1010.27 1010.17 1010.11 1010.10 1010.13
1011.08 1010.55 1009.90 1009.18 1008.45 1007.77 1007.20 1006.77 1006.50 1006.37 1006.38 1006.48 1006.65 1006.85 1007.08 1007.33 1007.60 1007.90 1008.25 1008.63 1009.05 1009.49 1009.91 1010.29 1010.61 1010.85 1010.99 1011.05 1011.03 1010.96 1010.83 1010.67 1010.49 1010.30 1010.10 1009.90 1009.71 1009.54 1009.41 1009.31 1009.27 1009.28 1009.35
1011.17 1010.61 1009.94 1009.23 1008.53 1007.88 1007.35 1006.94 1006.67 1006.52 1006.48 1006.50 1006.58 1006.69 1006.84 1007.02 1007.25 1007.55 1007.91 1008.33 1008.78 1009.25 1009.69 1010.08 1010.38 1010.59 1010.69 1010.70 1010.63 1010.49 1010.31 1010.09 1009.85 1009.60 1009.35 1009.10 1008.88 1008.69 1008.54 1008.45 1008.42 1008.46 1008.56
1011.19 1010.62 1009.98 1009.31 1008.67 1008.09 1007.62 1007.26 1007.00 1006.84 1006.74 1006.69 1006.68 1006.70 1006.76 1006.87 1007.06 1007.33 1007.69 1008.10 1008.56 1009.02 1009.45 1009.81 1010.08 1010.24 1010.30 1010.27 1010.16 1009.98 1009.77 1009.52 1009.25 1008.97 1008.68 1008.41 1008.16 1007.95 1007.79 1007.70 1007.68 1007.73 1007.85
1011.18 1010.61 1010.01 1009.41 1008.85 1008.37 1007.97 1007.66 1007.43 1007.26 1007.12 1007.01 1006.91 1006.84 1006.82 1006.88 1007.01 1007.25 1007.57 1007.96 1008.39 1008.81 1009.20 1009.51 1009.73 1009.84 1009.86 1009.80 1009.67 1009.49 1009.28 1009.04 1008.77 1008.50 1008.21 1007.93 1007.66 1007.44 1007.26 1007.16 1007.13 1007.18 1007.31
1011.14 1010.59 1010.04 1009.51 1009.05 1008.65 1008.33 1008.08 1007.88 1007.70 1007.53 1007.37 1007.21 1007.07 1006.99 1006.99 1007.08 1007.27 1007.55 1007.90 1008.28 1008.64 1008.96 1009.21 1009.37 1009.44 1009.43 1009.36 1009.24 1009.09 1008.92 1008.72 1008.50 1008.26 1007.99 1007.72 1007.45 1007.20 1007.01 1006.87 1006.83 1006.87 1006.98
1011.09 1010.57 1010.07 1009.61 1009.22 1008.90 1008.65 1008.45 1008.27 1008.09 1007.90 1007.69 1007.49 1007.31 1007.19 1007.15 1007.21 1007.36 1007.61 1007.90 1008.22 1008.52 1008.77 1008.95 1009.05 1009.08 1009.06 1009.00 1008.93 1008.83 1008.73 1008.60 1008.45 1008.25 1008.03 1007.77 1007.50 1007.24 1007.02 1006.85 1006.77 1006.77 1006.85
1011.07 1010.56 1010.10 1009.69 1009.36 1009.10 1008.89 1008.71 1008.54 1008.35 1008.15 1007.92 1007.69 1007.50 1007.36 1007.30 1007.34 1007.48 1007.69 1007.94 1008.20 1008.44 1008.62 1008.75 1008.81 1008.81 1008.79 1008.76 1008.73 1008.71 1008.68 1008.64 1008.56 1008.44 1008.25 1008.02 1007.75 1007.48 1007.22 1007.01 1006.88 1006.83 1006.87
1011.08 1010.59 1010.15 1009.78 1009.47 1009.23 1009.03 1008.85 1008.67 1008.47 1008.25 1008.01 1007.77 1007.57 1007.43 1007.38 1007.42 1007.55 1007.75 1007.98 1008.20 1008.39 1008.53 1008.61 1008.64 1008.64 1008.62 1008.62 1008.64 1008.68 1008.73 1008.77 1008.76 1008.69 1008.56 1008.35 1008.08 1007.79 1007.50 1007.24 1007.05 1006.94 1006.92
1011.15 1010.68 1010.25 1009.88 1009.57 1009.32 1009.10 1008.89 1008.68 1008.45 1008.20 1007.94 1007.70 1007.51 1007.39 1007.36 1007.42 1007.56 1007.76 1007.99 1008.20 1008.36 1008.47 1008.53 1008.54 1008.53 1008.53 1008.55 1008.61 1008.69 1008.80 1008.89 1008.94 1008.92 1008.81 1008.62 1008.36 1008.05 1007.73 1007.44 1007.19 1007.02 1006.93
Thickness
5819 5815 5809 5805 5802 5799 5797 5794 5792 5789 5787 5785 5782 5780 5779 5777 5776 5774 5772 5770 5769 5767 5765 5763 5762 5760 5758 5757 5756 5756 5755 5754 5753 5753 5752 5752 5751 5750 5749 5748 5747 5747 5746
5820 5813 5807 5803 5800 5797 5794 5791 5789 5787 5784 5782 5779 5777 5775 5773 5772 5770 5769 5767 5765 5764 5762 5760 5758 5757 5756 5755 5754 5753 5753 5752 5751 5751 5750 5750 5750 5749 5747 5746 5745 5744 5743
5817 5810 5805 5800 5797 5794 5791 5788 5786 5784 5781 5779 5776 5774 5772 5770 5769 5767 5765 5763 5762 5760 5759 5757 5755 5754 5753 5752 5751 5750 5750 5750 5750 5749 5749 5749 5749 5748 5746 5744 5743 5742 5741
5814 5808 5803 5797 5793 5790 5787 5785 5783 5781 5778 5775 5774 5772 5770 5768 5766 5764 5762 5760 5759 5757 5755 5754 5752 5751 5750 5750 5749 5748 5747 5747 5747 5747 5748 5749 5749 5747 5745 5742 5741 5740 5739
5812 5806 5799 5794 5790 5787 5783 5781 5779 5777 5775 5772 5770 5769 5767 5765 5763 5761 5759 5757 5756 5754 5753 5751 5750 5749 5748 5747 5746 5745 5745 5745 5745 5745 5747 5749 5748 5746 5744 5741 5739 5738 5737
5809 5803 5795 5791 5787 5784 5780 5778 5776 5774 5771 5769 5767 5765 5763 5762 5759 5758 5756 5754 5753 5751 5750 5749 5747 5746 5745 5744 5744 5743 5743 5742 5743 5745 5747 5747 5746 5745 5742 5740 5737 5736 5734
5806 5800 5791 5787 5784 5780 5777 5775 5773 5770 5768 5766 5764 5762 5760 5758 5757 5755 5753 5751 5750 5748 5747 5746 5745 5744 5743 5742 5741 5741 5740 5740 5741 5744 5746 5746 5744 5743 5740 5738 5735 5734 5732
5803 5797 5788 5784 5781 5778 5775 5773 5770 5767 5765 5762 5760 5758 5757 5755 5754 5752 5750 5749 5747 5746 5745 5744 5743 5742 5741 5740 5739 5738 5738 5738 5740 5743 5744 5743 5742 5741 5738 5735 5733 5731 5730
5800 5793 5786 5781 5778 5775 5772 5769 5766 5764 5762 5759 5757 5755 5753 5752 5751 5749 5747 5746 5744 5743 5742 5741 5740 5739 5738 5737 5737 5736 5736 5736 5737 5740 5741 5740 5738 5737 5735 5733 5730 5728 5727
5796 5790 5786 5780 5776 5773 5768 5765 5763 5761 5759 5756 5754 5752 5750 5749 5748 5747 5745 5744 5742 5741 5739 5739 5738 5737 5735 5735 5735 5735 5735 5734 5736 5738 5738 5737 5735 5734 5732 5730 5728 5726 5725
5789 5786 5781 5778 5774 5771 5767 5763 5760 5758 5755 5753 5751 5749 5747 5747 5746 5745 5744 5742 5740 5738 5737 5736 5735 5734 5733 5733 5733 5733 5732 5732 5735 5736 5735 5733 5732 5730 5729 5727 5725 5724 5722
5780 5780 5779 5775 5772 5769 5766 5761 5758 5756 5753 5750 5749 5747 5745 5745 5745 5744 5741 5739 5737 5736 5735 5733 5732 5732 5731 5731 5732 5731 5730 5730 5732 5733 5732 5731 5729 5727 5725 5724 5722 5721 5720
5778 5774 5772 5771 5769 5766 5762 5758 5756 5754 5751 5748 5747 5745 5744 5743 5742 5740 5738 5736 5734 5733 5732 5731 5730 5729 5730 5729 5729 5729 5728 5728 5729 5730 5728 5727 5725 5723 5722 5721 5719 5718 5717
5775 5771 5770 5768 5764 5761 5758 5755 5753 5751 5748 5747 5744 5742 5741 5739 5738 5737 5735 5733 5731 5730 5729 5729 5728 5727 5726 5726 5725 5724 5725 5725 5725 5725 5723 5722 5721 5719 5718 5717 5716 5715 5715
5770 5768 5766 5764 5759 5757 5753 5750 5749 5747 5745 5744 5742 5739 5737 5735 5734 5733 5731 5730 5728 5728 5727 5725 5724 5723 5722 5721 5720 5720 5720 5720 5720 5719 5718 5717 5716 5715 5714 5714 5713 5712 5712
5766 5763 5762 5759 5755 5753 5748 5745 5744 5743 5741 5740 5738 5736 5733 5732 5730 5728 5727 5726 5724 5723 5722 5721 5720 5719 5718 5717 5716 5716 5715 5715 5715 5714 5713 5712 5712 5712 5711 5710 5710 5709 5709
5762 5759 5756 5755 5752 5747 5744 5741 5740 5738 5737 5735 5733 5731 5730 5727 5725 5723 5722 5721 5720 5719 5718 5716 5715 5713 5712 5711 5711 5711 5711 5710 5710 5710 5709 5708 5707 5708 5708 5707 5707 5706 5705
5758 5755 5752 5752 5746 5742 5738 5735 5734 5732 5731 5730 5728 5727 5724 5723 5720 5718 5716 5716 5716 5715 5713 5711 5709 5706 5705 5705 5705 5705 5705 5705 5705 5706 5705 5704 5704 5704 5704 5703 5703 5702 5702
5755 5750 5747 5744 5740 5737 5734 5731 5729 5727 5724 5724 5723 5721 5719 5718 5717 5715 5713 5712 5711 5710 5708 5706 5703 5701 5698 5698 5698 5699 5700 5700 5701 5702 5701 5701 5701 5700 5700 5699 5699 5698 5697
5751 5747 5743 5739 5736 5733 5729 5725 5723 5721 5719 5718 5717 5716 5715 5714 5712 5711 5710 5708 5707 5704 5702 5700 5697 5695 5693 5692 5692 5693 5694 5696 5697 5697 5696 5697 5697 5696 5696 5695 5694 5693 5693
5747 5742 5739 5735 5732 5728 5723 5719 5716 5714 5714 5713 5713 5712 5711 5710 5708 5707 5705 5703 5702 5699 5696 5694 5691 5689 5688 5687 5684 5684 5688 5691 5692 5692 5691 5691 5691 5692 5691 5691 5690 5689 5688
5742 5738 5735 5731 5728 5724 5721 5718 5715 5714 5712 5711 5710 5708 5707 5706 5704 5703 5699 5698 5696 5693 5691 5689 5686 5683 5682 5682 5678 5675 5675 5679 5683 5688 5686 5685 5685 5686 5686 5686 5686 5685 5685
5739 5735 5733 5728 5725 5721 5718 5715 5712 5710 5707 5706 5704 5703 5703 5701 5699 5697 5695 5693 5691 5689 5686 5683 5681 5677 5674 5676 5675 5670 5666 5666 5671 5677 5679 5680 5679 5679 5679 5680 5681 5681 5680
5738 5734 5730 5725 5721 5717 5714 5711 5707 5703 5700 5700 5700 5699 5698 5697 5696 5694 5691 5689 5687 5684 5681 5679 5677 5674 5671 5668 5670 5670 5668 5666 5661 5663 5669 5672 5673 5672 5672 5674 5674 5674 5675
5735 5731 5726 5721 5717 5714 5711 5708 5704 5701 5698 5697 5696 5695 5693 5693 5692 5690 5687 5684 5682 5679 5677 5675 5672 5669 5667 5664 5663 5663 5663 5662 5661 5656 5656 5661 5663 5666 5667 5668 5668 5669 5670
5733 5729 5724 5718 5714 5712 5709 5705 5700 5697 5695 5692 5690 5689 5688 5687 5686 5684 5683 5680 5678 5675 5673 5671 5669 5666 5663 5661 5658 5657 5655 5655 5654 5653 5651 5652 5653 5658 5661 5662 5663 5664 5664